Погода в Фалево

Россия / Тверская область     57°16′19″N   37°50′44″E
темп.,
°C
ветер,
м/с
пор.,
м/с
влажн.,
%
обл.,
%
осадки,
мм/ч
давл.,
гПа
погр.,
м
7 августа, вс
вс700:00+18ююз49833 0.8 1017152
03:00+18ююз38910 0.8 1016140
06:00+18ююз25903 0.3 1016119
09:00+21зюз3585100 2.9 1017396
12:00+24з4570100 0.6 1017892
15:00+19ссз5688100 5.8 1018499
18:00+16с5796100 2.5 1019357
21:00+14с4698100 6.3 1019312
8 августа, пн
пн800:00+14с2696100 1.6 1021280
03:00+13с269493 1.6 1021209
06:00+13ссв369380 0.0 1022203
09:00+16св457525 0.0 1023555
12:00+20всв335732 0.0 10231151
15:00+21вюв235779 0.0 10221236
18:00+19юв226875 0.0 1022240
21:00+17ссв2274100 0.0 102224
9 августа, вт
вт900:00+15св2373100 0.0 102265
03:00+16ссв2460100 0.0 1022117
06:00+16ссв3669100 0.0 1021186
09:00+16ссв2479100 0.1 1021259
12:00+19св3571100 0.1 1022712
15:00+19св356677 0.1 1021802
18:00+20всв34635 0.0 1020961
21:00+14вюв12895 0.1 102111
10 августа, ср
ср1000:00+13сз11895 0.0 102110
03:00+12сз22905 0.0 102111
06:00+13с228675 0.0 102162
09:00+17ссз457623 0.1 1021566
12:00+19с44717 3.0 1020932
15:00+17ссз677779 8.5 1020625
18:00+15сз489089 2.1 1021385
21:00+13ссз38907 2.2 1022138
11 августа, чт
чт1100:00+12сз35925 0.0 102274
03:00+11ссз34925 0.0 102348
06:00+11сз34895 0.0 102475
09:00+18ссз34695 0.0 1024398
12:00+21сз45491 0.0 10241337
15:00+22сз34435 0.0 10231818
18:00+22сз235549 0.0 1023540
21:00+16з2268100 0.0 102311